STARLINK-5281 (54190 NORAD) Tracking and Keplerian Element Data

This shows tracking and keplerian element data for the satellite.

Feedback or suggestion? Click here.




ElementValue
Catalog54190
NameSTARLINK-5281
Epoch Orbit130
Epoch Day324.91667824
Epoch Year2022
RAAN25.7392
Inclination53.2176
Eccentricity0.0002857
Argument of Perigee9.6959
Mean Anonmoly292.3944
Mean Motion15.73188915
Decay Rate0.00017486
L11 54190U 22141AK 22324.91667824 .00017486 00000+0 12880-3 0 9992
L22 54190 53.2176 25.7392 0002857 9.6959 292.3944 15.73188915 1308



Live tracking and technical data element details for STARLINK-5281 (NORAD 54190). STARLINK-5281 can be tracked NOW for your location showing map with azimuth and elevation plus other details from your city location.







IsCatalogInMostPopularTable: catalog: 54190, numindb: 7
Update: records affected: 1



GetName: 54190 STARLINK-5281

Hit Count: updated at: Sun, 04 Dec 2022 22:51:06 GMT